OK1FET-5 Weather Reports


time (UTC)temp
C
wind
direction
speed
KPH
gust
KPH
rain 1hr
cm
rain 24hr
cm
rain mn
cm
humidity
%
barometer
mb
20260507074851 15 245 9.7 20.9 0.00 0.00 0.00 76 1011.2
20260507074357 15 249 8.0 12.9 0.00 0.00 0.00 78 1011.1
20260507073902 15 258 8.0 11.3 0.00 0.00 0.00 78 1011.0
20260507073408 15 282 8.0 12.9 0.00 0.00 0.00 78 1011.0
20260507072913 15 283 8.0 14.5 0.00 0.00 0.00 78 1010.8
20260507072419 15 285 8.0 11.3 0.00 0.00 0.00 80 1010.7
20260507071924 15 270 8.0 12.9 0.00 0.00 0.00 82 1010.8
20260507071430 14 248 6.4 9.7 0.00 0.00 0.00 83 1010.9
20260507070936 14 267 6.4 11.3 0.00 0.00 0.00 84 1010.9
20260507070441 13 268 6.4 11.3 0.00 0.00 0.00 84 1010.8
20260507065948 13 240 6.4 11.3 0.00 0.00 0.00 83 1010.8
20260507065453 13 239 6.4 11.3 0.00 0.00 0.00 83 1010.8
20260507064958 13 237 4.8 9.7 0.00 0.00 0.00 83 1010.8
20260507064010 13 267 6.4 11.3 0.00 0.00 0.00 84 1010.7
20260507062527 12 264 8.0 11.3 0.00 0.00 0.00 85 1010.6
20260507062032 12 239 6.4 11.3 0.00 0.00 0.00 86 1010.5
20260507061538 12 254 6.4 11.3 0.00 0.00 0.00 86 1010.5
20260507061044 12 251 6.4 11.3 0.00 0.00 0.00 86 1010.4
20260507060549 12 234 6.4 11.3 0.00 0.00 0.00 85 1010.4
20260507060055 12 248 4.8 9.7 0.00 0.00 0.00 85 1010.3
20260507055601 12 237 4.8 8.0 0.00 0.00 0.00 85 1010.3
20260507055107 12 240 4.8 9.7 0.00 0.00 0.00 85 1010.2
20260507054613 12 262 3.2 4.8 0.00 0.00 0.00 86 1010.2
20260507054118 12 262 3.2 4.8 0.00 0.00 0.00 85 1010.1
20260507053624 12 243 4.8 8.0 0.00 0.00 0.00 85 1010.2
20260507053130 12 254 4.8 8.0 0.00 0.00 0.00 85 1010.1
20260507052636 12 273 1.6 4.8 0.00 0.00 0.00 88 1010.0
20260507052141 12 285 3.2 6.4 0.00 0.00 0.00 88 1009.9
20260507051153 12 279 3.2 8.0 0.00 0.00 0.00 89 1009.8
20260507050659 12 289 3.2 4.8 0.00 0.00 0.00 89 1009.8
20260507050205 12 297 3.2 4.8 0.00 0.00 0.00 90 1009.8
20260507045710 11 291 1.6 4.8 0.00 0.00 0.00 91 1009.7
20260507045216 11 301 1.6 3.2 0.00 0.00 0.00 92 1009.6
20260507044722 11 303 3.2 8.0 0.00 0.00 0.00 93 1009.5
20260507044228 11 315 4.8 8.0 0.00 0.00 0.00 95 1009.4
20260507043734 11 318 6.4 11.3 0.00 0.00 0.00 95 1009.4
20260507043239 11 318 4.8 9.7 0.00 0.00 0.00 93 1009.3
20260507042745 11 321 4.8 8.0 0.00 0.00 0.00 91 1009.4
20260507042251 11 315 4.8 8.0 0.00 0.00 0.00 90 1009.3
20260507041757 12 315 4.8 11.3 0.00 0.00 0.00 90 1009.3
20260507041303 12 303 4.8 8.0 0.00 0.00 0.00 94 1009.2
20260507040808 11 305 4.8 8.0 0.00 0.00 0.00 97 1009.2
20260507040314 11 306 6.4 9.7 0.00 0.00 0.00 100 1009.1
20260507035820 11 328 6.4 9.7 0.00 0.00 0.00 100 1009.1
20260507035326 11 314 8.0 11.3 0.00 0.00 0.00 100 1009.1
20260507034832 11 303 8.0 12.9 0.00 0.00 0.00 100 1009.0
20260507034338 11 324 8.0 11.3 0.00 0.00 0.00 100 1008.9
20260507033844 11 306 8.0 12.9 0.00 0.00 0.00 99 1008.8
20260507033350 11 306 8.0 11.3 0.00 0.00 0.00 95 1008.9
20260507032855 11 288 8.0 14.5 0.00 0.00 0.00 94 1009.0
20260507032401 11 300 6.4 11.3 0.00 0.00 0.00 92 1009.0
20260507031907 11 298 6.4 11.3 0.00 0.00 0.00 92 1009.0
20260507031413 11 297 6.4 9.7 0.00 0.00 0.00 90 1008.9
20260507030919 11 279 4.8 8.0 0.00 0.00 0.00 87 1008.9
20260507030425 11 279 6.4 9.7 0.00 0.00 0.00 88 1008.9
20260507025931 11 324 4.8 6.4 0.00 0.00 0.00 89 1008.9
20260507025437 11 299 6.4 8.0 0.00 0.00 0.00 89 1008.8
20260507024942 11 305 4.8 9.7 0.00 0.00 0.00 88 1008.8
20260507024448 11 306 4.8 6.4 0.00 0.00 0.00 86 1008.8
20260507023954 11 282 3.2 6.4 0.00 0.00 0.00 85 1008.8
20260507023500 11 273 4.8 8.0 0.00 0.00 0.00 84 1008.8
20260507022017 11 302 3.2 4.8 0.00 0.00 0.00 88 1008.7
20260507021523 11 318 4.8 6.4 0.00 0.00 0.00 91 1008.6
20260507021029 12 315 6.4 9.7 0.00 0.00 0.00 91 1008.6
20260507020535 12 316 4.8 6.4 0.00 0.00 0.00 90 1008.6
20260507020040 12 305 4.8 8.0 0.00 0.00 0.00 91 1008.6
20260507015546 12 306 4.8 8.0 0.00 0.00 0.00 89 1008.7
20260507015052 12 321 4.8 8.0 0.00 0.00 0.00 89 1008.5
20260507014558 12 301 4.8 8.0 0.00 0.00 0.00 89 1008.5
20260507014103 12 277 3.2 4.8 0.00 0.00 0.00 87 1008.5
20260507013609 12 276 3.2 8.0 0.00 0.00 0.00 87 1008.6
20260507013115 12 303 3.2 4.8 0.00 0.00 0.00 87 1008.6
20260507012621 12 295 3.2 4.8 0.00 0.00 0.00 88 1008.5
20260507012126 12 316 3.2 4.8 0.00 0.00 0.00 89 1008.4
20260507011632 12 309 4.8 4.8 0.00 0.00 0.00 90 1008.4
20260507011138 12 314 4.8 4.8 0.00 0.00 0.00 90 1008.4
20260507010644 12 318 4.8 4.8 0.00 0.00 0.00 89 1008.3
20260507010149 12 303 3.2 4.8 0.00 0.00 0.00 88 1008.3
20260507005655 12 309 1.6 4.8 0.00 0.00 0.00 86 1008.2
20260507005201 12 315 1.6 3.2 0.00 0.00 0.00 86 1008.1
20260507004707 12 312 3.2 4.8 0.00 0.00 0.00 87 1008.1
20260507004213 12 312 4.8 6.4 0.00 0.00 0.00 88 1008.2
20260507003718 12 279 3.2 4.8 0.00 0.00 0.00 85 1008.2
20260507003224 12 225 1.6 3.2 0.00 0.00 0.00 83 1008.1
20260507002730 12 249 1.6 3.2 0.00 0.00 0.00 83 1008.0
20260507001741 12 244 1.6 4.8 0.00 0.00 0.00 83 1007.9
20260507001247 12 264 1.6 1.6 0.00 0.00 0.00 83 1007.9
20260507000753 12 330 1.6 3.2 0.00 0.00 0.00 83 1007.8
20260506235805 12 4 1.6 3.2 0.00 0.00 0.00 82 1007.6
20260506235311 12 341 1.6 3.2 0.00 0.00 0.00 82 1007.7
20260506234816 12 238 0.0 1.6 0.00 0.00 0.00 82 1007.8
20260506234322 12 187 0.0 3.2 0.00 0.00 0.00 83 1007.8
20260506233828 12 269 0.0 1.6 0.00 0.00 0.00 83 1007.7
20260506233333 12 298 0.0 1.6 0.00 0.00 0.00 84 1007.7
20260506232839 12 315 1.6 4.8 0.00 0.00 0.00 84 1007.7
20260506232345 12 321 3.2 3.2 0.00 0.00 0.00 85 1007.7
20260506231851 12 321 3.2 4.8 0.00 0.00 0.00 87 1007.7
20260506231356 12 307 4.8 8.0 0.00 0.00 0.00 89 1007.8
20260506230902 12 322 6.4 8.0 0.00 0.00 0.00 90 1007.7
20260506230408 12 316 4.8 8.0 0.00 0.00 0.00 87 1007.7
20260506225914 12 300 4.8 8.0 0.00 0.00 0.00 85 1007.7
20260506225420 12 289 4.8 6.4 0.00 0.00 0.00 81 1007.7
20260506224926 12 253 6.4 8.0 0.00 0.00 0.00 78 1007.7
20260506224431 12 255 4.8 8.0 0.00 0.00 0.00 78 1007.7
20260506223937 12 267 4.8 9.7 0.00 0.00 0.00 79 1007.7
20260506223443 12 248 4.8 8.0 0.00 0.00 0.00 79 1007.7
20260506222949 12 225 6.4 9.7 0.00 0.00 0.00 78 1007.7
20260506222455 12 258 4.8 9.7 0.00 0.00 0.00 80 1007.6
20260506221506 12 221 6.4 11.3 0.00 0.00 0.00 79 1007.7
20260506221012 12 224 6.4 9.7 0.00 0.00 0.00 79 1007.6
20260506220518 12 224 4.8 6.4 0.00 0.00 0.00 81 1007.6
20260506220023 12 196 8.0 9.7 0.00 0.00 0.00 83 1007.6
20260506215529 12 180 9.7 11.3 0.00 0.00 0.00 85 1007.5
20260506215035 12 174 8.0 9.7 0.00 0.00 0.00 86 1007.4
20260506214541 12 171 8.0 9.7 0.00 0.00 0.00 85 1007.4
20260506214046 12 174 8.0 11.3 0.00 0.00 0.00 84 1007.4
20260506213552 12 180 8.0 11.3 0.00 0.00 0.00 83 1007.4
20260506213058 13 177 6.4 9.7 0.00 0.00 0.00 83 1007.6
20260506212603 13 180 6.4 8.0 0.00 0.00 0.00 85 1007.5
20260506212109 13 180 6.4 8.0 0.00 0.00 0.00 84 1007.5
20260506211615 13 154 4.8 8.0 0.00 0.00 0.00 84 1007.4
20260506211121 13 164 3.2 4.8 0.00 0.00 0.00 84 1007.3
20260506210627 13 180 4.8 6.4 0.00 0.00 0.00 82 1007.4
20260506210132 13 174 6.4 9.7 0.00 0.00 0.00 83 1007.4
20260506205638 13 199 8.0 12.9 0.00 0.00 0.00 81 1007.3
20260506205143 13 231 9.7 14.5 0.00 0.00 0.00 79 1007.4
20260506204649 13 228 11.3 19.3 0.00 0.00 0.00 75 1007.4
20260506204155 13 248 4.8 8.0 0.00 0.00 0.00 71 1007.3
20260506203700 13 267 3.2 4.8 0.00 0.00 0.00 73 1007.1
20260506203206 13 316 1.6 1.6 0.00 0.00 0.00 75 1006.8
20260506202712 13 344 1.6 3.2 0.00 0.00 0.00 76 1006.6
20260506202217 13 327 1.6 3.2 0.00 0.00 0.00 76 1006.3
20260506201723 13 357 3.2 3.2 0.00 0.00 0.00 76 1006.2
20260506201229 13 14 3.2 4.8 0.00 0.00 0.00 75 1006.1
20260506200734 13 282 3.2 6.4 0.00 0.00 0.00 74 1006.3
20260506195746 13 237 8.0 11.3 0.00 0.00 0.00 70 1006.7
20260506195251 14 197 6.4 8.0 0.00 0.00 0.00 69 1006.5
20260506194757 14 158 4.8 6.4 0.00 0.00 0.00 72 1006.3
20260506194302 14 135 4.8 6.4 0.00 0.00 0.00 73 1006.1
20260506193808 14 126 1.6 4.8 0.00 0.00 0.00 68 1006.0
20260506193313 14 113 4.8 6.4 0.00 0.00 0.00 68 1006.0
20260506192819 14 61 4.8 8.0 0.00 0.00 0.00 64 1006.1
20260506192325 14 59 4.8 6.4 0.00 0.00 0.00 65 1006.1
20260506191830 14 78 3.2 4.8 0.00 0.00 0.00 65 1006.0
20260506190842 14 2 3.2 6.4 0.00 0.00 0.00 64 1006.2
20260506190347 14 0 3.2 4.8 0.00 0.00 0.00 62 1006.2
20260506185853 14 357 4.8 4.8 0.00 0.00 0.00 63 1006.2
20260506185358 14 342 6.4 8.0 0.00 0.00 0.00 64 1006.1
20260506184904 14 357 4.8 4.8 0.00 0.00 0.00 64 1005.9
20260506184409 14 353 4.8 6.4 0.00 0.00 0.00 65 1005.8
20260506183915 15 327 4.8 8.0 0.00 0.00 0.00 64 1005.8
20260506183421 15 334 3.2 4.8 0.00 0.00 0.00 64 1005.7
20260506182926 15 338 4.8 8.0 0.00 0.00 0.00 63 1005.6
20260506182432 15 324 4.8 6.4 0.00 0.00 0.00 63 1005.5
20260506181937 15 324 4.8 6.4 0.00 0.00 0.00 62 1005.3
20260506180949 16 44 3.2 4.8 0.00 0.00 0.00 61 1005.2
20260506180453 16 64 3.2 4.8 0.00 0.00 0.00 62 1005.3
20260506175959 16 83 6.4 8.0 0.00 0.00 0.00 65 1005.2
20260506175504 16 91 8.0 11.3 0.00 0.00 0.00 72 1005.1
20260506175010 16 117 9.7 11.3 0.00 0.00 0.00 76 1005.0
20260506174515 16 139 8.0 9.7 0.00 0.00 0.00 68 1005.1
20260506174020 16 130 3.2 6.4 0.00 0.00 0.00 57 1005.3
20260506173526 17 349 1.6 3.2 0.00 0.00 0.00 54 1005.2
20260506173032 17 40 1.6 4.8 0.00 0.00 0.00 53 1005.2
20260506172537 17 322 1.6 3.2 0.00 0.00 0.00 53 1005.5
20260506172042 17 309 0.0 0.0 0.00 0.00 0.00 54 1005.5
20260506171547 18 329 3.2 4.8 0.00 0.00 0.00 53 1005.4
20260506170558 18 198 0.0 1.6 0.00 0.00 0.00 52 1005.2
20260506170104 18 241 0.0 1.6 0.00 0.00 0.00 52 1005.0
20260506165608 18 318 1.6 3.2 0.00 0.00 0.00 51 1004.9
20260506165113 18 27 1.6 3.2 0.00 0.00 0.00 50 1005.0
20260506164618 18 340 1.6 3.2 0.00 0.00 0.00 50 1005.1
20260506163629 20 350 1.6 1.6 0.00 0.00 0.00 50 1005.1
20260506163134 20 349 0.0 3.2 0.00 0.00 0.00 50 1005.3
20260506162639 20 357 1.6 1.6 0.00 0.00 0.00 50 1005.3
20260506162144 21 280 0.0 1.6 0.00 0.00 0.00 50 1005.2
20260506161154 21 177 1.6 4.8 0.00 0.00 0.00 50 1005.3
20260506160203 21 340 1.6 3.2 0.00 0.00 0.00 49 1005.1
20260506155708 21 299 1.6 3.2 0.00 0.00 0.00 49 1005.2
20260506155213 21 319 0.0 3.2 0.00 0.00 0.00 49 1005.3
20260506154718 21 311 0.0 1.6 0.00 0.00 0.00 49 1005.6
20260506154223 20 180 0.0 1.6 0.00 0.00 0.00 48 1005.7
20260506153728 20 180 3.2 4.8 0.00 0.00 0.00 48 1005.9
20260506153233 20 180 3.2 4.8 0.00 0.00 0.00 48 1006.0
20260506152738 21 224 1.6 3.2 0.00 0.00 0.00 47 1006.0
20260506152243 21 290 1.6 3.2 0.00 0.00 0.00 46 1006.0
20260506151748 21 298 1.6 3.2 0.00 0.00 0.00 46 1005.9
20260506151253 21 303 0.0 1.6 0.00 0.00 0.00 47 1006.0
20260506150758 21 212 1.6 3.2 0.00 0.00 0.00 48 1006.0
20260506150304 21 311 1.6 3.2 0.00 0.00 0.00 48 1005.9
20260506145807 21 240 1.6 3.2 0.00 0.00 0.00 47 1006.0
20260506145312 21 224 0.0 4.8 0.00 0.00 0.00 47 1006.1
20260506144817 21 223 3.2 6.4 0.00 0.00 0.00 47 1006.1
20260506144322 21 312 0.0 1.6 0.00 0.00 0.00 47 1006.1
20260506143827 21 345 0.0 1.6 0.00 0.00 0.00 47 1006.1
20260506143332 21 335 0.0 1.6 0.00 0.00 0.00 47 1006.1
20260506142837 21 333 3.2 6.4 0.00 0.00 0.00 47 1006.1
20260506142342 22 124 3.2 4.8 0.00 0.00 0.00 48 1006.0
20260506141351 22 160 3.2 4.8 0.00 0.00 0.00 47 1006.2
20260506140856 23 9 3.2 4.8 0.00 0.00 0.00 47 1006.2
20260506140400 23 311 3.2 6.4 0.00 0.00 0.00 47 1006.2
20260506134913 25 187 9.7 12.9 0.00 0.00 0.00 49 1006.4
20260506134418 25 184 8.0 12.9 0.00 0.00 0.00 50 1006.3
20260506133922 24 183 9.7 12.9 0.00 0.00 0.00 51 1006.4
20260506132931 25 152 6.4 11.3 0.00 0.00 0.00 49 1006.4
20260506131939 25 260 4.8 11.3 0.00 0.00 0.00 49 1006.5
20260506131444 23 201 11.3 16.1 0.00 0.00 0.00 50 1006.7
20260506130948 23 189 11.3 17.7 0.00 0.00 0.00 49 1006.8
20260506130453 23 201 11.3 19.3 0.00 0.00 0.00 51 1007.0
20260506125501 24 195 16.1 24.1 0.00 0.00 0.00 49 1007.0
20260506125006 25 201 16.1 20.9 0.00 0.00 0.00 49 1007.1
20260506124510 25 266 6.4 20.9 0.00 0.00 0.00 50 1007.1
20260506124014 25 279 6.4 12.9 0.00 0.00 0.00 52 1007.1
20260506123519 24 305 6.4 9.7 0.00 0.00 0.00 48 1007.1
20260506123023 26 200 8.0 16.1 0.00 0.00 0.00 55 1007.2
20260506122527 26 229 6.4 12.9 0.00 0.00 0.00 53 1007.3
20260506122031 26 237 6.4 8.0 0.00 0.00 0.00 54 1007.2
20260506121536 25 229 11.3 17.7 0.00 0.00 0.00 53 1007.2
20260506121039 25 211 9.7 12.9 0.00 0.00 0.00 55 1007.2
20260506120048 25 264 6.4 9.7 0.00 0.00 0.00 56 1007.2
20260506115057 25 225 8.0 25.7 0.00 0.00 0.00 53 1007.2
20260506114601 24 231 11.3 17.7 0.00 0.00 0.00 55 1007.2
20260506114106 25 261 3.2 9.7 0.00 0.00 0.00 57 1007.2
20260506113610 23 269 8.0 14.5 0.00 0.00 0.00 54 1007.3
20260506113114 24 239 6.4 12.9 0.00 0.00 0.00 57 1007.4
20260506112619 23 293 4.8 8.0 0.00 0.00 0.00 58 1007.4
20260506112123 23 232 9.7 16.1 0.00 0.00 0.00 57 1007.5
20260506111628 24 223 9.7 19.3 0.00 0.00 0.00 57 1007.4
20260506110637 23 215 11.3 17.7 0.00 0.00 0.00 57 1007.4
20260506110142 22 242 8.0 14.5 0.00 0.00 0.00 57 1007.5
20260506105647 23 306 6.4 14.5 0.00 0.00 0.00 55 1007.4
20260506105151 23 234 8.0 16.1 0.00 0.00 0.00 57 1007.5
20260506104656 22 270 8.0 16.1 0.00 0.00 0.00 59 1007.5
20260506104200 21 241 9.7 16.1 0.00 0.00 0.00 59 1007.5
20260506103705 21 235 8.0 11.3 0.00 0.00 0.00 60 1007.5
20260506103210 21 262 9.7 12.9 0.00 0.00 0.00 60 1007.5
20260506102715 21 249 9.7 12.9 0.00 0.00 0.00 60 1007.5
20260506102220 21 247 9.7 17.7 0.00 0.00 0.00 61 1007.7
20260506101724 21 236 8.0 11.3 0.00 0.00 0.00 61 1007.6
20260506101229 21 233 14.5 25.7 0.00 0.00 0.00 59 1007.6
20260506100734 21 213 16.1 29.0 0.00 0.00 0.00 59 1007.5
20260506095744 21 223 12.9 22.5 0.00 0.00 0.00 62 1007.7
20260506095248 21 252 4.8 9.7 0.00 0.00 0.00 64 1007.5
20260506094753 20 255 11.3 24.1 0.00 0.00 0.00 63 1007.5
20260506093803 20 235 9.7 16.1 0.00 0.00 0.00 64 1007.5
20260506093308 20 225 11.3 24.1 0.00 0.00 0.00 63 1007.5
20260506092813 20 273 8.0 12.9 0.00 0.00 0.00 65 1007.5
20260506092318 20 216 9.7 16.1 0.00 0.00 0.00 64 1007.3
20260506091823 20 270 8.0 12.9 0.00 0.00 0.00 66 1007.4
20260506091328 20 249 6.4 12.9 0.00 0.00 0.00 66 1007.4
20260506090833 20 236 11.3 19.3 0.00 0.00 0.00 65 1007.5
20260506090338 20 265 8.0 12.9 0.00 0.00 0.00 66 1007.6
20260506085842 20 256 9.7 20.9 0.00 0.00 0.00 66 1007.4
20260506085347 20 261 8.0 14.5 0.00 0.00 0.00 65 1007.5
20260506084852 20 266 8.0 14.5 0.00 0.00 0.00 65 1007.5
20260506084357 20 258 11.3 22.5 0.00 0.00 0.00 66 1007.5
20260506083408 19 261 8.0 20.9 0.00 0.00 0.00 68 1007.5
20260506082912 18 281 6.4 20.9 0.00 0.00 0.00 68 1007.4
20260506082417 18 260 6.4 12.9 0.00 0.00 0.00 69 1007.4
20260506081922 19 243 11.3 17.7 0.00 0.00 0.00 67 1007.4
20260506081427 20 264 9.7 19.3 0.00 0.00 0.00 67 1007.5
20260506080932 20 250 9.7 19.3 0.00 0.00 0.00 67 1007.2
20260506080438 19 283 6.4 11.3 0.00 0.00 0.00 69 1007.3